Content
SEND FEEDBACK

Daily
Averages
Monthly
Summary
United States of America

CHESTERFIELD, MISSOURI


Home > North America > United States > Missouri
Elevation: 170 meters     Latitude: 38 41N     Longitude: 090 31W

WEATHER
 
SELECT A DAY
Number of Records: 206,719;   Date Range: 1/1/95 - 10/29/14
 
SHARE

PRINT THIS DATA

[ ← Previous Day ]
WEATHER ALMANAC - 14 FEBRUARY, 2013
[ Next Day → ]
[ °F ]   °C
Weather ElementAverageHighLow
Temperature8.2 °C13.9 °C (1:51 pm)4.4 °C (6:51 am)
Dewpoint-1.1 °C0 °C (10:51 am)-2.2 °C (10:51 pm)
Humidity53.4 %68 % (6:51 am)37 % (1:51 pm)
Barometer1013.9 hPa1018.6 hPa (11:51 pm)1009.8 hPa (3:51 am)
Wind Speed17.2 km/h27.8 km/h (3:51 pm)
Wind Gust38.9 km/h (3:51 pm)
Weather ElementAverage
Visibility16.1 km
Wind DirectionWNW (283.5 °)

Weather ElementTotal
Precipitation---
Heating Degree Days9.2 (Base 18.3)
Averaged from 23 records on 14 February, 2013
WEATHER CONDITIONS BREAKOUT
WIND DIRECTION BREAKOUT
WEATHER BY HOUR - 14 FEBRUARY, 2013
[ °F ]   °C
Local TimeTemperatureDewpointHumidityBarometerVisibilityWind DirectionWind SpeedGust SpeedPrecipitationEventsConditions
1:51 AM5 °C-1.1 °C65 %1010.2 hPa16.1 kmSW (230°)18.5 km/hMostly Cloudy
2:51 AM6 °C-1 °C61 %1010.2 hPa16.1 kmSW (230°)16.7 km/hMostly Cloudy
3:51 AM5.6 °C-1.1 °C62 %1009.8 hPa16.1 kmSW (230°)16.7 km/hMostly Cloudy
4:51 AM5 °C-1 °C65 %1009.8 hPa16.1 kmWSW (250°)14.8 km/hScattered Clouds
5:51 AM5 °C-1 °C65 %1009.8 hPa16.1 kmWSW (250°)18.5 km/hPartly Cloudy
6:51 AM4.4 °C-1.1 °C68 %1011.2 hPa16.1 kmWSW (250°)16.7 km/hScattered Clouds
7:51 AM5.6 °C-1.1 °C62 %1012.5 hPa16.1 kmWest (260°)20.4 km/hMostly Cloudy
8:51 AM7.8 °C-1.1 °C54 %1013.2 hPa16.1 kmWest (280°)20.4 km/hScattered Clouds
9:51 AM10 °C-0.6 °C48 %1013.5 hPa16.1 kmWest (280°)18.5 km/hScattered Clouds
10:51 AM10.6 °C0 °C48 %1013.9 hPa16.1 kmWNW (300°)20.4 km/h35.2 km/hScattered Clouds
11:51 AM12.2 °C0 °C43 %1013.9 hPa16.1 kmWNW (300°)22.2 km/h37 km/hScattered Clouds
12:51 PM13.3 °C0 °C40 %1013.5 hPa16.1 kmWNW (290°)22.2 km/h33.3 km/hScattered Clouds
1:51 PM13.9 °C-0.6 °C37 %1013.2 hPa16.1 kmWNW (300°)14.8 km/h31.5 km/hMostly Cloudy
2:51 PM13.3 °C-1.1 °C37 %1013.9 hPa16.1 kmWNW (300°)24.1 km/h35.2 km/hMostly Cloudy
3:51 PM12.2 °C-1.7 °C38 %1014.6 hPa16.1 kmNW (310°)27.8 km/h38.9 km/hMostly Cloudy
4:51 PM11.1 °C-1.1 °C43 %1014.9 hPa16.1 kmNW (320°)24.1 km/h38.9 km/hMostly Cloudy
5:51 PM8.9 °C-1.1 °C50 %1016.3 hPa16.1 kmNW (320°)18.5 km/hMostly Cloudy
6:51 PM7.8 °C-0.6 °C56 %1017.3 hPa16.1 kmWNW (300°)9.3 km/hMostly Cloudy
7:51 PM7.2 °C-1.1 °C56 %1017.9 hPa16.1 kmWNW (300°)9.3 km/hMostly Cloudy
8:51 PM6.1 °C-1.1 °C60 %1017.9 hPa16.1 kmWNW (290°)13 km/hMostly Cloudy
9:51 PM6.1 °C-1.7 °C58 %1017.9 hPa16.1 kmNW (310°)13 km/hMostly Cloudy
10:51 PM6.7 °C-2.2 °C53 %1018.3 hPa16.1 kmNW (310°)11.1 km/hMostly Cloudy
11:51 PM5 °C-2.2 °C60 %1018.6 hPa16.1 kmNW (310°)5.6 km/hMostly Cloudy
Hourly data recorded from KSTL, located 0 kilometers away from Chesterfield, Missouri







STORIES FROM OUR PARTNERS